STARLINK-4689, 53590

Orbit data source: Space-Track

STARLINK-4689, 53590 is a payload satellite owned by SpaceX/Seattle (US) in LEO that was launched on Sun, 28 Aug 2022 UTC via an FALCON 9 launch vehicle from the Air Force Eastern Test Range (AFETR). Payload-class satellites include a variety of spacecraft equipped with specific instruments for various scientific and technological missions. These include communications satellites like Starlink; space stations such as the ISS; scientific satellites like the Hubble; Earth observation satellites from companies like Planet Labs, Umbra, and HawkEye 360; GPS; miniature CubeSats for education and research; and military/defense satellites.

Loading next visibility...
Identifier
53590, 2022-104C
Orbit
LEO
Country
Flag of USUS
Related business
Manufacturer
SpaceX/Seattle
Mission
Operational Commercial Communications
Bus & Motor
STARLINK, Unknown motor
Mass
300 kg wet, ~290 kg dry
Launch date (UTC)
2022-08-28 (3 years ago)
Launch vehicle
FALCON 9
Launch site
Air Force Eastern Test Range (AFETR)
Object type
Payload
Rocket body
Debris
Shape & HBR
Box + 1 Pan, 10.1 m
Radar Cross Section
13.562 m², Large (>1 m²)

Expand to show TLE details & history
Last TLE update: 16 hours ago

TLE from 16 hours ago
0 STARLINK-4689
1 53590U 22104C   25347.19184955  .00005551  00000-0  36650-3 0  9993
2 53590  53.2158 272.6335 0001394  94.2305 265.8846 15.08848425182900
Epoch: 2025-12-13T04:36Z
TLE epoch observation values (Epoch: 2025-12-13T04:36:15.801Z)
Latitude
-0.00004°
Longitude
121.44498°
Altitude
540.684 km
Speed
7.593 km/s
True Right ascension
18h 10m 32s
True Declination
0° 00' 00"
Sunlit
Object was in daylight at epoch
Visualization orbit readout
Latitude
Unknown
Longitude
Unknown
Altitude
Unknown
Speed
Unknown
Apparent Right ascension
Unknown
Apparent Declination
Unknown
Sunlit
N/A
Visualization observer readout
Local Sidereal Time
19:03:25
Azimuth
Unknown
Elevation
Unknown
Doppler factor
Unknown
Orbital elements
Apogee altitude
540.927 km
Perigee altitude
538.998 km
Semi-major axis
6,918.1 km
Eccentricity
0.00014
Inclination
53.2158°
RAAN
272.6335°
Arg. of periapsis
94.2305°
True anomaly
265.86867°
Mean anomaly
265.8846°
Eccentric anomaly
265.87663°
Mean motion
3.77192 °/min
Orbital period
95.44 mins
BSTAR
0.0003665
Loading maneuver chart data...
Computing Atmospheric mass density...
Loading historical data...
Loading historical data...
Loading historical data...
Loading historical data...
Loading historical data...
Loading historical data...
Loading historical data...

Documentation

Showing up to 5 results
|